Preview of NWS' New Version of Forecast
This preview is not operational and should not be used for support decisions.

Regional Weather Roundup (RWR)

Issued by National Weather Service (NWS)

                            
000
ASUS43 KDMX 180806
RWRIA 

WEATHER ROUNDUP FOR IOWA
NATIONAL WEATHER SERVICE DES MOINES IA
300 AM CDT WED SEP 18 2019

NOTE: "FAIR" INDICATES FEW OR NO CLOUDS BELOW 12,000 FEET WITH NO
SIGNIFICANT WEATHER AND/OR OBSTRUCTIONS TO VISIBILITY.

* - THESE STATIONS ARE NOT NWS STATIONS...THUS NOT UNDER NWS
QUALITY CONTROL.  THEY ALSO DO NOT REPORT WEATHER SUCH 
AS PRECIPITATION OR FOG.  

IAZ001>003-012>014-020>022-031>034-043>046-180900-
   NORTHWEST IOWA
  
CITY           SKY/WX    TMP DP  RH WIND       PRES   REMARKS
CARROLL *      MOCLDY    72  68  88 S9        29.92F                  
CHEROKEE *     MOCLDY    74  69  81 S12       29.86F                  
DENISON *      CLEAR     75  70  83 S17G23    29.91F                  
LE MARS *      PTCLDY    75  72  88 S21G28    29.81F                  
SHELDON *      HVY RAIN  72  72 100 S18G24    29.82F                  
SIOUX CITY     CLEAR     76  68  76 SE14      29.83F                  
SPENCER        MOCLDY    75  67  76 S20G30    29.85F                  
STORM LAKE *   CLEAR     72  68  88 S15       29.86F                  
$$
 
IAZ055>058-069>071-079>083-090>094-180900-
   SOUTHWEST IOWA
  
CITY           SKY/WX    TMP DP  RH WIND       PRES   REMARKS
ATLANTIC *     CLEAR     73  70  88 S9        29.93F                  
AUDUBON *        N/A     73  66  78 S6        29.95F                  
CLARINDA *     CLEAR     72  70  94 S7        29.97F                  
COUNCIL BLFS * CLEAR     73  72  94 S10       29.91S                  
CRESTON *      CLEAR     70  68  94 SE8       29.98S                  
HARLAN  *      MOCLDY    73  68  83 S10       29.93S                  
LAMONI         CLEAR     73  69  87 SE7       29.99S                  
RED OAK *      MOCLDY    73  68  83 S7        29.94F                  
SHENANDOAH *   CLEAR     73  68  83 SE8       29.93F                  
$$
 
IAZ047>049-059>061-072>074-084-180900-
   CENTRAL IOWA
  
CITY           SKY/WX    TMP DP  RH WIND       PRES   REMARKS
AMES           CLEAR     72  71  97 SE10      29.96F                  
ANKENY *       CLEAR     73  72  94 S7        29.98F                  
BOONE *        CLEAR     73  72  94 SE9       29.96F                  
CHARITON *     CLEAR     72  72 100 SE8       29.99F                  
DES MOINES     MOCLDY    74  70  87 SE10      29.96F                  
GRINNELL*      CLEAR     70  67  89 SE12      30.02F                  
KNOXVILLE *    CLEAR     72  70  94 SE9       29.99F                  
MARSHALLTOWN   CLEAR     68  68 100 SE9       29.99S                  
NEWTON *       CLEAR     70  70 100 SE8       29.99F                  
PELLA *        CLEAR     71  66  84 SE6       30.01F                  
PERRY *        FAIR      70  68  93 SE7       29.95F                  
$$
 
IAZ004>006-015-016-023>025-035-036-180900-
   NORTH CENTRAL IOWA
  
CITY           SKY/WX    TMP DP  RH WIND       PRES   REMARKS
ALGONA *       CLEAR     73  73 100 S17       29.90F                  
CLARION *      CLEAR     72  72 100 S15G22    29.95F                  
ESTHERVILLE    MOCLDY    72  68  87 S16       29.87F                  
FORT DODGE *   CLEAR     74  71  91 S10G17    29.94F                  
MASON CITY     CLEAR     69  65  86 SE14      29.97F                  
FOREST CITY *  FAIR      70  70 100 S12G17    29.95F                  
IOWA FALLS *     N/A     69  64  84 SE9       29.99F                  
$$

IAZ007>011-017>019-026>030-037>042-050>054-066-180900-
   NORTHEAST IOWA
  
CITY           SKY/WX    TMP DP  RH WIND       PRES   REMARKS
CEDAR RAPIDS   FAIR      69  66  90 SE9       30.03S                  
CHARLES CITY * CLOUDY    70  68  94 SE12      30.00F                  
CLINTON *      FAIR      66  64  93 SE14      30.08F                  
DECORAH *      FAIR      66  66 100 S10       30.01F                  
DUBUQUE        FAIR      65  64  97 SE12      30.06F                  
MONTICELLO *   FAIR      66  66 100 SE7       30.05F                  
OELWEIN *      CLEAR     68  68 100 SE12      30.03F                  
WATERLOO       FAIR      71  66  84 SE13      29.99F                  
$$
 
IAZ064-065-067-068-078-180900-
   EAST CENTRAL IOWA
  
CITY           SKY/WX    TMP DP  RH WIND       PRES   REMARKS
DAVENPORT      FAIR      67  63  87 SE8       30.08F                  
IOWA CITY      FAIR      69  65  86 SE6       30.05F                  
MUSCATINE *    FAIR      70  66  88 SE5       30.06S                  
QUAD CITIES    FAIR      64  62  93 E7        30.06F FOG              
$$
 
IAZ062-063-075>077-085>089-095>099-180900-
   SOUTHEAST IOWA
  
CITY           SKY/WX    TMP DP  RH WIND       PRES   REMARKS
BURLINGTON     CLEAR     70  64  81 SE8       30.05S                  
FAIRFIELD *    CLOUDY    70  68  94 SE9       30.03F                  
FORT MADISON * CLEAR     70  66  88 SE8       30.06S                  
KEOKUK *       CLEAR     70  68  94 SE7       30.04F                  
OSKALOOSA *    FAIR      69  66  90 SE7       30.02F                  
CENTERVILLE *  FAIR      72  72 100 SE7       30.03S                  
OTTUMWA        CLEAR     71  67  87 SE8       30.02S                  
WASHINGTON *     N/A    N/A N/A N/A MISG        N/A                   
$$

ABBREVIATIONS USED IN REMARKS
   TC - TEMPERATURES IN CELSIUS
  WCI - WIND CHILL INDEX
   HX - HEAT INDEX
  VSB - VISIBILITY  
$$